Zurück zum Katalog

CZ-6A DEB

AktivSSO
NORAD 69092·DEBRIS·🇨🇳 China

Gestartet Nov 11, 2022 von Taiyuan Satellite Launch Center

Loading…

Nächste Überflüge (nächste 24 Stunden)

TLE

AktuellSource: Space-Track

Epoche: Sep 13, 2026, 12:56 UTC

1 69092U 22151AJK 26256.53956207  .00004802  00000-0  16937-2 0  9997
2 69092  98.8330 285.2227 0027535  23.3581 336.8847 14.35011073174119

Verfolge CZ-6A DEB in Echtzeit mit AllMySat

Download on the App Store